Simultaneous Nadir Overpasses (SNOs) Predictions

Prediction of SNOs near US between AQUA and NPP Satellite Orbit:

Table of predicted SNOs near US for the next 10.0 days since TLE Epoch: 8/23/2019
Index Date (AQUA) Time (AQUA) AQUA Lat,Lon Date (NPP) Time (NPP) NPP Lat,Lon Distance(km) Time Diff (sec)
1 08/26/2019 09:23:19 23.74,-113.35 08/26/2019 09:16:01 23.80,-113.82 48.42 438
2 08/29/2019 06:30:10 46.34, -65.03 08/29/2019 06:30:52 46.75, -67.04 160.17 42
3 08/29/2019 08:08:03 49.91, -88.34 08/29/2019 08:11:18 50.43, -90.84 187.48 195
4 08/29/2019 09:46:56 49.91,-113.06 08/29/2019 09:52:46 50.54,-116.17 231.84 350
5 08/31/2019 19:06:12 49.94, -92.51 08/31/2019 19:01:35 49.60, -94.42 142.44 277
6 08/31/2019 20:45:06 50.00,-117.25 08/31/2019 20:43:04 49.55,-119.77 187.63 122




NCC Satellite Simultaneous Nadir Overpasses (SNOs) Prediction Service
